STARLINK-11535, 62595

Orbit data source: Space-Track

STARLINK-11535, 62595 is a payload satellite owned by SpaceX/Seattle (US) in LEO that was launched on Mon, 13 Jan 2025 UTC via an FALCON 9 launch vehicle from the Air Force Eastern Test Range (AFETR). Payload-class satellites include a variety of spacecraft equipped with specific instruments for various scientific and technological missions. These include communications satellites like Starlink; space stations such as the ISS; scientific satellites like the Hubble; Earth observation satellites from companies like Planet Labs, Umbra, and HawkEye 360; GPS; miniature CubeSats for education and research; and military/defense satellites.

Loading next visibility...
Identifier
62595, 2025-008J
Orbit
LEO
Country
Flag of USUS
Related business
Manufacturer
SpaceX/Seattle
Mission
Operational Commercial Communications
Bus & Motor
STARLINK V2MD, Unknown motor
Mass
960 kg wet, ~910 kg dry
Launch date (UTC)
2025-01-13 (1 year ago)
Launch vehicle
FALCON 9
Launch site
Air Force Eastern Test Range (AFETR)
Object type
Payload
Rocket body
Debris
Shape & HBR
Box + 2 Pan, 18.1 m
Radar Cross Section
36.964 m², Large (>1 m²)

Expand to show TLE details & history
Last TLE update: 1 day ago

TLE from 1 day ago
0 STARLINK-11535
1 62595U 25008J   26124.54790495  .00173163  00000-0  13246-2 0  9999
2 62595  43.0005 149.0768 0001224 285.3283  74.7449 15.70847676 75925
Epoch: 2026-05-04T13:08Z
TLE epoch observation values (Epoch: 2026-05-04T13:08:58.987Z)
Latitude
-0.00005°
Longitude
89.39544°
Altitude
356.028 km
Speed
7.698 km/s
True Right ascension
09h 56m 18s
True Declination
0° 00' 00"
Sunlit
Object was in daylight at epoch
Visualization orbit readout
Latitude
Unknown
Longitude
Unknown
Altitude
Unknown
Speed
Unknown
Apparent Right ascension
Unknown
Apparent Declination
Unknown
Sunlit
N/A
Visualization observer readout
Local Sidereal Time
21:47:32
Azimuth
Unknown
Elevation
Unknown
Doppler factor
Unknown
Orbital elements
Apogee altitude
359.279 km
Perigee altitude
357.63 km
Semi-major axis
6,736.592 km
Eccentricity
0.00012
Inclination
43.0005°
RAAN
149.0768°
Arg. of periapsis
285.3283°
True anomaly
74.75843°
Mean anomaly
74.7449°
Eccentric anomaly
74.75167°
Mean motion
3.92539 °/min
Orbital period
91.71 mins
BSTAR
0.0013246
Loading maneuver chart data...
Computing Atmospheric mass density...
Loading historical data...
Loading historical data...
Loading historical data...
Loading historical data...
Loading historical data...
Loading historical data...
Loading historical data...

Documentation

Showing up to 5 results
|